Weather History for KTKV - March, 2012

Change the Weather History Date:

Saturday, March 3, 2012

  Actual Average (KRHI) Record (KRHI)
Temperature  
Mean Temperature 26 °F 22 °F  
Max Temperature 30 °F 32 °F 53 °F (2000)
Min Temperature 21 °F 12 °F -28 °F (2014)
Degree Days  
Heating Degree Days 40 43  
Month to date heating degree days 131  
Since 1 July heating degree days 6753  
Cooling Degree Days 0 0  
Month to date cooling degree days 0  
Year to date cooling degree days 0  
Moisture  
Dew Point 21 °F    
Average Humidity 78    
Maximum Humidity 86    
Minimum Humidity 64    
Precipitation  
Precipitation 0.00 in 0.04 in 0.55 in (1985)
Month to date precipitation 0.13  
Year to date precipitation 2.17  
Snow  
Snow 0.00 in - 7.00 in (1977)
Month to date snowfall  
Since 1 July snowfall  
Snow Depth -    
Sea Level Pressure  
Sea Level Pressure 29.55 in    
Wind  
Wind Speed 9 mph (NW)    
Max Wind Speed 14 mph    
Max Gust Speed 20 mph    
Visibility 6 miles    
Events Snow    
T = Trace of Precipitation, MM = Missing Value Source: NWS Daily Summary

Daily Weather History Graph

Daily Weather History Graph

Search for Another Location

Airport or City:

Trip Planner

Search our weather history database for the weather conditions in past years. The results will help you decide how hot, cold, wet, or windy it might be!

Date:

Astronomy

Mar. 03, 2012 Rise Set
Actual Time 6:33 AM CST 5:49 PM CST
Civil Twilight 6:03 AM CST 6:19 PM CST
Nautical Twilight 5:29 AM CST 6:53 PM CST
Astronomical Twilight 4:54 AM CST 7:28 PM CST
Moon 12:47 PM CST (3/3) 3:22 AM CST (3/3)
Length of Visible Light 12h 15m
Length of Day
11h 16m
Waxing Gibbous, 75% of the Moon is Illuminated
Mar 3
Waxing Gibbous
Mar 8
Full
Mar 14
Last Quarter
Mar 22
New
Mar 30
First Quarter

Hourly Weather History & Observations

Time (CST) Temp. Windchill Dew Point Humidity Pressure Visibility Wind Dir Wind Speed Gust Speed Precip Events Conditions
12:15 AM 30.2 °F 21.3 °F 24.8 °F 80% 29.43 in 7.0 mi West 10.4 mph - N/A   Overcast
12:35 AM 28.4 °F 17.5 °F 24.8 °F 86% 29.43 in 5.0 mi West 13.8 mph 19.6 mph N/A Snow Light Snow
12:55 AM 28.4 °F 19.1 °F 24.8 °F 86% 29.43 in 5.0 mi West 10.4 mph 16.1 mph N/A   Overcast
1:15 AM 28.4 °F 18.5 °F 23.0 °F 80% 29.43 in 5.0 mi West 11.5 mph - N/A Snow Light Snow
1:35 AM 26.6 °F 16.8 °F 23.0 °F 86% 29.43 in 5.0 mi West 10.4 mph - N/A Snow Light Snow
1:55 AM 26.6 °F 17.5 °F 23.0 °F 86% 29.42 in 5.0 mi West 9.2 mph - N/A Snow Light Snow
2:15 AM 26.6 °F 18.2 °F 23.0 °F 86% 29.42 in 5.0 mi West 8.1 mph - N/A Snow Light Snow
2:35 AM 26.6 °F 16.8 °F 23.0 °F 86% 29.42 in 5.0 mi West 10.4 mph - N/A Snow Light Snow
2:55 AM 26.6 °F 17.5 °F 23.0 °F 86% 29.41 in 4.0 mi West 9.2 mph - N/A Snow Light Snow
3:15 AM 26.6 °F 18.2 °F 23.0 °F 86% 29.41 in 3.0 mi West 8.1 mph - N/A Snow Light Snow
3:35 AM 26.6 °F 16.8 °F 23.0 °F 86% 29.41 in 4.0 mi West 10.4 mph - N/A Snow Light Snow
3:55 AM 26.6 °F 16.2 °F 21.2 °F 80% 29.41 in 3.0 mi West 11.5 mph - N/A Snow Light Snow
4:15 AM 26.6 °F 16.8 °F 23.0 °F 86% 29.41 in 2.5 mi West 10.4 mph - N/A Snow Light Snow
4:35 AM 26.6 °F 17.5 °F 21.2 °F 80% 29.42 in 4.0 mi West 9.2 mph - N/A Snow Light Snow
4:55 AM 26.6 °F 16.8 °F 21.2 °F 80% 29.42 in 5.0 mi West 10.4 mph - N/A   Overcast
5:15 AM 26.6 °F 16.2 °F 23.0 °F 86% 29.42 in 3.0 mi West 11.5 mph - N/A Snow Light Snow
5:35 AM 26.6 °F 16.8 °F 23.0 °F 86% 29.43 in 2.5 mi West 10.4 mph - N/A Snow Light Snow
6:15 AM 26.6 °F 18.2 °F 23.0 °F 86% 29.44 in 2.0 mi West 8.1 mph - N/A Snow Light Snow
6:35 AM 26.6 °F 17.5 °F 23.0 °F 86% 29.44 in 1.5 mi West 9.2 mph - N/A Snow Light Snow
6:55 AM 26.6 °F 17.5 °F 23.0 °F 86% 29.45 in 1.2 mi West 9.2 mph - N/A Snow Light Snow
7:15 AM 26.6 °F 17.5 °F 23.0 °F 86% 29.46 in 1.5 mi West 9.2 mph - N/A Snow Light Snow
7:35 AM 26.6 °F 18.2 °F 23.0 °F 86% 29.47 in 2.0 mi West 8.1 mph - N/A Snow Light Snow
7:55 AM 26.6 °F 16.8 °F 23.0 °F 86% 29.48 in 2.5 mi West 10.4 mph - N/A Snow Light Snow
8:15 AM 26.6 °F 18.2 °F 23.0 °F 86% 29.48 in 2.0 mi WNW 8.1 mph - N/A Snow Light Snow
8:35 AM 26.6 °F 17.5 °F 23.0 °F 86% 29.49 in 1.5 mi WNW 9.2 mph - N/A Snow Light Snow
8:55 AM 28.4 °F 19.1 °F 23.0 °F 80% 29.49 in 1.8 mi WNW 10.4 mph - N/A Snow Light Snow
9:15 AM 28.4 °F 22.2 °F 23.0 °F 80% 29.50 in 2.0 mi WNW 5.8 mph - N/A Snow Light Snow
9:35 AM 28.4 °F 20.4 °F 23.0 °F 80% 29.51 in 3.0 mi WNW 8.1 mph - N/A Snow Light Snow
9:55 AM 28.4 °F 23.3 °F 23.0 °F 80% 29.52 in 2.0 mi North 4.6 mph - N/A Snow Light Snow
10:15 AM 28.4 °F 20.4 °F 21.2 °F 74% 29.53 in 4.0 mi NW 8.1 mph - N/A   Haze
10:35 AM 28.4 °F 20.4 °F 21.2 °F 74% 29.54 in 5.0 mi NNW 8.1 mph - N/A   Haze
10:55 AM 28.4 °F 19.1 °F 21.2 °F 74% 29.55 in 5.0 mi NNW 10.4 mph - N/A   Haze
11:15 AM 28.4 °F 18.5 °F 21.2 °F 74% 29.56 in 5.0 mi NNW 11.5 mph - N/A   Haze
11:35 AM 30.2 °F 21.3 °F 19.4 °F 64% 29.57 in 10.0 mi NNW 10.4 mph - N/A   Overcast
11:55 AM 30.2 °F 21.3 °F 21.2 °F 69% 29.57 in 7.0 mi NNW 10.4 mph - N/A   Overcast
12:15 PM 30.2 °F 22.6 °F 19.4 °F 64% 29.58 in 7.0 mi NNW 8.1 mph 17.3 mph N/A   Overcast
12:55 PM 30.2 °F 24.3 °F 19.4 °F 64% 29.58 in 10.0 mi North 5.8 mph - N/A   Overcast
1:15 PM 30.2 °F 21.9 °F 19.4 °F 64% 29.59 in 7.0 mi NNW 9.2 mph - N/A   Overcast
1:35 PM 30.2 °F 21.9 °F 21.2 °F 69% 29.59 in 10.0 mi NNW 9.2 mph - N/A   Overcast
1:55 PM 30.2 °F 25.4 °F 21.2 °F 69% 29.60 in 10.0 mi NNW 4.6 mph - N/A   Overcast
2:15 PM 30.2 °F 21.3 °F 21.2 °F 69% 29.60 in 7.0 mi NNW 10.4 mph 17.3 mph N/A   Overcast
2:35 PM 30.2 °F 22.6 °F 21.2 °F 69% 29.61 in 7.0 mi NNW 8.1 mph - N/A   Overcast
2:55 PM 28.4 °F 21.2 °F 21.2 °F 74% 29.62 in 5.0 mi NNW 6.9 mph - N/A   Haze
3:15 PM 28.4 °F 20.4 °F 21.2 °F 74% 29.63 in 7.0 mi NNW 8.1 mph - N/A   Overcast
3:35 PM 28.4 °F 20.4 °F 21.2 °F 74% 29.64 in 10.0 mi NNW 8.1 mph - N/A   Overcast
3:55 PM 28.4 °F 19.1 °F 19.4 °F 69% 29.65 in 10.0 mi NW 10.4 mph - N/A   Overcast
4:15 PM 28.4 °F 21.2 °F 19.4 °F 69% 29.65 in 10.0 mi NNW 6.9 mph - N/A   Overcast
4:35 PM 28.4 °F 20.4 °F 19.4 °F 69% 29.66 in 10.0 mi NNW 8.1 mph - N/A   Overcast
4:55 PM 26.6 °F 19.1 °F 19.4 °F 74% 29.67 in 10.0 mi NW 6.9 mph - N/A   Overcast
5:15 PM 26.6 °F 20.0 °F 19.4 °F 74% 29.68 in 10.0 mi NNW 5.8 mph - N/A   Overcast
5:35 PM 26.6 °F 20.0 °F 19.4 °F 74% 29.69 in 10.0 mi NNW 5.8 mph - N/A   Overcast
5:55 PM 26.6 °F 21.2 °F 19.4 °F 74% 29.70 in 10.0 mi NNW 4.6 mph - N/A   Overcast
6:15 PM 24.8 °F 17.9 °F 19.4 °F 80% 29.71 in 7.0 mi NNW 5.8 mph - N/A   Overcast
6:35 PM 24.8 °F 19.1 °F 19.4 °F 80% 29.72 in 10.0 mi NNW 4.6 mph - N/A   Overcast
6:55 PM 23.0 °F 14.7 °F 19.4 °F 86% 29.72 in 7.0 mi North 6.9 mph - N/A   Overcast
7:15 PM 23.0 °F 15.8 °F 17.6 °F 80% 29.73 in 10.0 mi North 5.8 mph - N/A   Overcast
7:35 PM 23.0 °F 17.0 °F 17.6 °F 80% 29.73 in 10.0 mi North 4.6 mph - N/A   Overcast
7:55 PM 21.2 °F 12.6 °F 14.0 °F 74% 29.73 in 10.0 mi North 6.9 mph - N/A   Overcast
8:15 PM 21.2 °F 16.4 °F 14.0 °F 74% 29.74 in 10.0 mi NNE 3.5 mph - N/A   Overcast
8:35 PM 21.2 °F 12.6 °F 14.0 °F 74% 29.74 in 10.0 mi NNE 6.9 mph - N/A   Overcast
8:55 PM 19.4 °F 11.5 °F 14.0 °F 80% 29.75 in 10.0 mi NNE 5.8 mph - N/A   Overcast
9:15 PM 19.4 °F 14.3 °F 14.0 °F 80% 29.75 in 10.0 mi North 3.5 mph - N/A   Overcast
9:35 PM 19.4 °F 12.8 °F 12.2 °F 74% 29.76 in 10.0 mi North 4.6 mph - N/A   Overcast
9:55 PM 19.4 °F 14.3 °F 14.0 °F 80% 29.76 in 7.0 mi North 3.5 mph - N/A Snow Light Snow
10:15 PM 19.4 °F 14.3 °F 14.0 °F 80% 29.76 in 4.0 mi NNE 3.5 mph - N/A Snow Light Snow
10:35 PM 17.6 °F 10.7 °F 14.0 °F 86% 29.76 in 4.0 mi North 4.6 mph - N/A Snow Light Snow
10:55 PM 17.6 °F 10.7 °F 14.0 °F 86% 29.76 in 4.0 mi North 4.6 mph - N/A Snow Light Snow
11:15 PM 17.6 °F 12.3 °F 14.0 °F 86% 29.76 in 5.0 mi NNE 3.5 mph - N/A Snow Light Snow
11:35 PM 17.6 °F 12.3 °F 12.2 °F 79% 29.76 in 7.0 mi NNE 3.5 mph - N/A   Overcast
11:55 PM 17.6 °F 12.3 °F 12.2 °F 79% 29.76 in 10.0 mi NNE 3.5 mph - N/A   Overcast